Manchester, NH

4:38 AM EDT on October 01, 2016 (GMT -0400)
Manchester

Weather History for KMHT - March, 2012

Change the Weather History Date:

Friday, March 2, 2012

  Actual Average Record
Temperature  
Mean Temperature 24 °F 32 °F  
Max Temperature 30 °F 41 °F 62 °F (2004)
Min Temperature 19 °F 23 °F -5 °F (1967)
Degree Days  
Heating Degree Days 40 33  
Month to date heating degree days 66  
Since 1 July heating degree days 4729  
Cooling Degree Days 0 0  
Month to date cooling degree days 0  
Year to date cooling degree days 0  
Moisture  
Dew Point 19 °F    
Average Humidity 80    
Maximum Humidity 86    
Minimum Humidity 72    
Precipitation  
Precipitation 0.00 in 0.10 in 1.05 in (2007)
Month to date precipitation 0.20  
Year to date precipitation 6.00  
Snow  
Snow 0.00 in - - ()
Month to date snowfall  
Since 1 July snowfall  
Snow Depth 11.00 in    
Sea Level Pressure  
Sea Level Pressure 30.15 in    
Wind  
Wind Speed 6 mph (ENE)    
Max Wind Speed 10 mph    
Max Gust Speed -    
Visibility 10 miles    
Events Snow    
T = Trace of Precipitation, MM = Missing Value Source: NWS Daily Summary

Daily Weather History Graph

Daily Weather History Graph

Search for Another Location

Airport or City:

Trip Planner

Search our weather history database for the weather conditions in past years. The results will help you decide how hot, cold, wet, or windy it might be!

Date:

Astronomy

Mar. 02, 2012 Rise Set
Actual Time 6:19 AM EST 5:36 PM EST
Civil Twilight 5:50 AM EST 6:05 PM EST
Nautical Twilight 5:18 AM EST 6:38 PM EST
Astronomical Twilight 4:45 AM EST 7:11 PM EST
Moon 11:39 AM EST (3/2) 2:13 AM EST (3/2)
Length of Visible Light 12h 14m
Length of Day
11h 17m
Waxing Gibbous, 66% of the Moon is Illuminated
Mar 2
Waxing Gibbous
Mar 8
Full
Mar 14
Last Quarter
Mar 22
New
Mar 30
First Quarter

Hourly Weather History & Observations

Time (EST) Temp. Windchill Dew Point Humidity Pressure Visibility Wind Dir Wind Speed Gust Speed Precip Events Conditions
12:53 AM 21.9 °F 13.4 °F 17.1 °F 82% 30.12 in 10.0 mi North 6.9 mph - N/A   Overcast
1:53 AM 21.9 °F 13.4 °F 16.0 °F 78% 30.12 in 10.0 mi North 6.9 mph - N/A   Overcast
2:53 AM 21.0 °F 11.4 °F 16.0 °F 81% 30.13 in 10.0 mi North 8.1 mph - N/A   Overcast
3:53 AM 21.0 °F 10.6 °F 15.1 °F 78% 30.14 in 10.0 mi NNE 9.2 mph - N/A   Overcast
4:53 AM 19.9 °F 10.1 °F 15.1 °F 81% 30.17 in 10.0 mi NNE 8.1 mph - N/A   Overcast
5:11 AM 19.4 °F 10.4 °F 15.8 °F 86% 30.12 in 10.0 mi NNE 6.9 mph - N/A   Overcast
5:53 AM 19.9 °F 11.1 °F 15.1 °F 81% 30.18 in 10.0 mi NNE 6.9 mph - N/A   Overcast
6:53 AM 19.0 °F 10.0 °F 14.0 °F 81% 30.20 in 10.0 mi NE 6.9 mph - N/A   Overcast
7:53 AM 19.0 °F 11.1 °F 12.9 °F 77% 30.22 in 10.0 mi NNE 5.8 mph - N/A   Overcast
8:53 AM 19.9 °F 13.4 °F 14.0 °F 78% 30.20 in 10.0 mi NE 4.6 mph - N/A   Overcast
9:53 AM 21.9 °F 17.2 °F 15.1 °F 75% 30.22 in 10.0 mi NNW 3.5 mph - N/A   Overcast
10:53 AM 23.0 °F - 15.1 °F 72% 30.21 in 10.0 mi Calm Calm - N/A   Overcast
11:53 AM 25.0 °F - 17.1 °F 72% 30.21 in 10.0 mi Calm Calm - N/A   Overcast
12:53 PM 25.0 °F - 18.0 °F 75% 30.19 in 10.0 mi Calm Calm - N/A   Overcast
1:53 PM 26.1 °F 20.5 °F 19.9 °F 78% 30.19 in 10.0 mi WSW 4.6 mph - N/A   Overcast
2:53 PM 27.0 °F 21.6 °F 21.9 °F 81% 30.17 in 10.0 mi SE 4.6 mph - N/A   Overcast
3:53 PM 28.0 °F 21.7 °F 21.9 °F 78% 30.16 in 10.0 mi SSE 5.8 mph - N/A   Overcast
4:53 PM 28.0 °F 22.8 °F 23.0 °F 81% 30.17 in 10.0 mi Variable 4.6 mph - N/A   Overcast
5:53 PM 28.0 °F 22.8 °F 23.0 °F 81% 30.16 in 10.0 mi SSE 4.6 mph - N/A   Overcast
6:53 PM 28.0 °F 24.2 °F 24.1 °F 85% 30.15 in 10.0 mi ESE 3.5 mph - N/A   Overcast
7:53 PM 28.9 °F 21.1 °F 25.0 °F 85% 30.14 in 9.0 mi SE 8.1 mph - N/A   Overcast
8:53 PM 28.9 °F 21.1 °F 25.0 °F 85% 30.14 in 5.0 mi SE 8.1 mph - N/A   Overcast
9:30 PM 28.4 °F 19.1 °F 24.8 °F 86% 30.06 in 9.0 mi SE 10.4 mph - N/A   Overcast
9:53 PM 28.9 °F 19.8 °F 25.0 °F 85% 30.10 in 9.0 mi SE 10.4 mph - N/A   Overcast
10:53 PM 30.0 °F 22.4 °F 25.0 °F 82% 30.04 in 10.0 mi ESE 8.1 mph - N/A   Overcast
11:53 PM 30.0 °F 26.5 °F 26.1 °F 85% 30.03 in 9.0 mi SE 3.5 mph - 0.00 in Snow Light Snow